OPTICUBE 04

Last updated on Sat Aug 15 2026 00:03:44 GMT+0000 (Coordinated Universal Time)

1 41851U 16067D 26226.53488039 .00001063 00000+0 69960-4 0 9990 2 41851 98.0638 81.8553 0014084 281.5790 78.3856 15.09870570533970
UTC large
Height (km)
Speed (km/s)
/
Latitude / Longitude
Inclination (degrees)
Orbital Period (minutes)
Azimuth
Elevation
Range (km)
Doppler Factor

Next 0 passes for location: London (51.5072 / 0.1276)

No passes found over London.
OPTICUBE 04